Location: Newark
(34.9500°N, 139.9667°E)
Time: 20:01:20
(UTC+00:00)

Tiros 1 despin weight - All Passes

Search period start: 07 December 2019 00:00
Search period end: 17 December 2019 00:00
Orbit: 594 x 642 km, 48.2° (Epoch: 06 December)

Date Brightness Start Highest point End Pass type
(mag) Time Alt. Az. Time Alt. Az. Time Alt. Az.
07 Dec - 01:04:53 10° NNW 01:07:58 18° NNE 01:11:03 10° ENE daylight
07 Dec - 02:45:53 10° NW 02:50:14 56° NNE 02:54:34 10° ESE daylight
07 Dec - 04:28:03 10° W 04:31:30 22° SW 04:34:57 10° S daylight
07 Dec - 18:33:32 10° SSE 18:36:11 15° SE 18:38:48 10° E visible
07 Dec - 20:12:45 10° SW 20:17:17 81° NW 20:21:47 10° NE visible
07 Dec - 21:55:52 10° WNW 21:59:21 22° NNW 22:02:49 10° NNE daylight
07 Dec - 23:39:43 10° NNW 23:42:11 14° N 23:44:39 10° NE daylight
08 Dec - 01:21:15 10° NW 01:24:56 25° NNE 01:28:36 10° ENE daylight
08 Dec - 03:02:24 10° NW 03:06:49 75° SW 03:11:13 10° SE daylight
08 Dec - 18:48:26 10° SSW 18:52:29 32° SE 18:56:30 10° ENE visible
08 Dec - 20:29:38 10° WSW 20:33:57 43° NNW 20:38:13 10° NE visible
08 Dec - 22:13:28 10° NW 22:16:22 17° N 22:19:15 10° NNE daylight
08 Dec - 23:56:31 10° NNW 23:59:18 16° N 00:02:05 10° NE daylight
09 Dec - 01:37:36 10° NW 01:41:46 39° NNE 01:45:55 10° E daylight
09 Dec - 03:19:15 10° WNW 03:23:15 34° SW 03:27:15 10° SSE daylight
09 Dec - 19:04:23 10° SW 19:08:55 69° SE 19:13:23 10° ENE visible
09 Dec - 20:46:54 10° W 20:50:45 27° NNW 20:54:34 10° NE visible
09 Dec - 22:30:56 10° NW 22:33:28 15° N 22:35:59 10° NNE daylight
10 Dec - 00:12:59 10° NNW 00:16:20 21° NNE 00:19:40 10° ENE daylight
10 Dec - 01:54:01 10° NW 01:58:27 74° NE 02:02:50 10° ESE daylight
10 Dec - 03:36:48 10° W 03:39:33 16° SW 03:42:17 10° S daylight
10 Dec - 17:40:45 10° S 17:44:13 21° SE 17:47:39 10° E visible
10 Dec - 19:20:58 10° WSW 19:25:28 61° NW 19:29:56 10° NE visible
10 Dec - 21:04:26 10° WNW 21:07:42 19° NNW 21:10:56 10° NNE visible
10 Dec - 22:48:00 10° NNW 22:50:35 15° N 22:53:09 10° NE daylight
11 Dec - 00:29:19 10° NW 00:33:15 30° NNE 00:37:08 10° E daylight
11 Dec - 02:10:39 10° WNW 02:14:57 54° SW 02:19:15 10° SE daylight
11 Dec - 17:56:13 10° SSW 18:00:34 44° SE 18:04:53 10° ENE visible
11 Dec - 19:38:01 10° W 19:42:11 35° NNW 19:46:19 10° NE visible
11 Dec - 21:22:01 10° NW 21:24:45 16° N 21:27:28 10° NNE daylight
11 Dec - 23:04:38 10° NNW 23:07:41 18° NNE 23:10:41 10° ENE daylight
12 Dec - 00:45:41 10° NW 00:50:00 50° NNE 00:54:18 10° ESE daylight
12 Dec - 02:27:42 10° WNW 02:31:20 25° SW 02:34:56 10° S daylight
12 Dec - 16:33:40 10° SSE 16:35:59 14° SE 16:38:17 10° E night (unlit)
12 Dec - 18:12:27 10° SW 18:17:03 89° NW 18:21:35 10° NE visible
12 Dec - 19:55:25 10° WNW 19:59:04 23° NNW 20:02:40 10° NNE visible
12 Dec - 21:39:20 10° NW 21:41:52 15° N 21:44:23 10° NE daylight
12 Dec - 23:21:03 10° NNW 23:24:40 24° NNE 23:28:15 10° ENE daylight
13 Dec - 01:02:11 10° NW 01:06:37 83° SW 01:11:01 10° SE daylight
13 Dec - 02:46:10 10° WSW 02:47:34 11° SW 02:48:58 10° SSW daylight
13 Dec - 16:48:17 10° SSW 16:52:15 29° SE 16:56:12 10° ENE night (unlit)
13 Dec - 18:29:15 10° WSW 18:33:40 47° NNW 18:38:03 10° NE visible
13 Dec - 20:13:00 10° NW 20:16:03 17° NNW 20:19:05 10° NNE visible
13 Dec - 21:56:13 10° NNW 21:59:00 16° N 22:01:44 10° NE daylight
13 Dec - 23:37:23 10° NW 23:41:31 36° NNE 23:45:36 10° E daylight
14 Dec - 01:18:57 10° WNW 01:23:04 39° SW 01:27:09 10° SSE daylight
14 Dec - 17:04:07 10° SW 17:08:40 61° SE 17:13:10 10° ENE night (unlit)
14 Dec - 18:46:28 10° W 18:50:27 29° NNW 18:54:25 10° NE visible
14 Dec - 20:30:31 10° NW 20:33:09 15° N 20:35:46 10° NNE visible
14 Dec - 22:12:44 10° NNW 22:16:03 20° NNE 22:19:19 10° ENE daylight
14 Dec - 23:53:47 10° NW 23:58:13 67° NE 00:02:35 10° ESE daylight
15 Dec - 01:36:20 10° W 01:39:23 18° SW 01:42:24 10° S daylight
15 Dec - 15:40:43 10° S 15:43:59 19° SE 15:47:15 10° E night (unlit)
15 Dec - 17:20:37 10° WSW 17:25:12 68° NW 17:29:45 10° NE night (unlit)
15 Dec - 19:03:57 10° WNW 19:07:23 20° NNW 19:10:46 10° NNE visible
15 Dec - 20:47:39 10° NNW 20:50:16 15° N 20:52:52 10° NE visible
15 Dec - 22:29:06 10° NW 22:32:59 28° NNE 22:36:48 10° E daylight
16 Dec - 00:10:23 10° WNW 00:14:45 61° SW 00:19:05 10° SE daylight
16 Dec - 15:56:00 10° SSW 16:00:19 40° SE 16:04:36 10° ENE night (unlit)
16 Dec - 17:37:36 10° W 17:41:54 38° NNW 17:46:09 10° NE night (unlit)
16 Dec - 19:21:32 10° NW 19:24:26 16° N 19:27:17 10° NNE visible
16 Dec - 21:04:21 10° NNW 21:07:21 17° NNE 21:10:21 10° NE visible
16 Dec - 22:45:27 10° NW 22:49:46 46° NNE 22:54:01 10° ESE daylight
